RH
41 41 41 42 43 43 43 44 43 43 43 47 48 47 45 45 46 44 41 38 39 39 38 38 39 38 38 37 36 32 32 35 34 34 32 30 35 37
43 45 46 46 46 45 48 47 46 43 48 51 51 50 50 48 46 49 52 50 48 47 41 38 38 38 37 32 30 27 25 24 22 27 27 32 35 35
44 44 49 46 47 51 50 50 51 51 49 48 49 53 54 52 54 52 52 52 53 50 47 43 40 38 34 29 26 24 22 19 18 25 24 32 31 31
54 51 49 53 55 56 56 57 52 50 52 53 54 56 58 58 56 57 57 57 53 49 46 42 38 33 30 26 23 20 18 15 16 22 22 29 30 30
52 59 58 58 61 56 52 52 54 57 57 55 56 56 58 59 65 63 61 58 54 48 43 36 31 28 25 22 20 17 15 15 16 22 25 31 31 31
58 54 55 59 58 58 54 56 58 58 60 59 60 61 64 70 66 64 60 55 51 45 38 31 27 24 22 20 18 17 17 16 22 25 26 28 30 31
55 56 54 59 61 58 62 60 61 63 64 62 62 71 74 68 67 64 57 53 48 42 32 27 24 24 22 19 18 18 18 19 24 26 25 25 26 32
59 58 62 66 61 64 65 64 63 66 66 69 74 76 76 69 63 56 54 46 40 34 29 26 24 20 18 18 18 20 19 19 19 20 23 27 28 30
66 65 68 61 64 67 65 65 66 68 75 77 81 78 72 67 58 52 46 37 31 29 26 23 19 16 15 16 18 19 20 19 20 21 23 29 31 34
68 67 65 66 71 70 69 71 73 79 79 82 81 74 68 58 53 46 36 31 28 27 25 21 20 14 13 14 17 19 19 21 23 24 26 29 36 38
66 67 65 72 72 72 73 77 81 82 83 83 75 69 59 54 46 38 32 28 28 27 23 20 19 16 13 14 16 19 21 24 26 29 32 36 37 41
70 64 65 74 75 74 78 83 87 85 84 80 72 67 57 46 39 34 29 30 29 25 24 20 18 18 21 19 20 22 24 29 31 35 41 43 44 43
70 73 80 76 78 76 84 89 86 83 81 74 70 59 49 43 37 31 31 29 26 24 24 22 22 25 26 23 21 25 30 33 36 40 46 49 50 52
79 88 77 80 75 87 90 91 85 83 78 72 60 51 49 39 34 32 29 27 26 25 25 26 26 28 30 28 28 27 31 37 41 44 49 51 53 56
84 77 83 84 88 90 96 89 86 83 74 64 57 51 41 37 34 31 26 24 25 27 28 28 29 31 33 34 35 35 35 34 44 49 53 56 51 53
79 89 90 88 91 97 97 92 86 77 69 61 54 44 41 37 32 26 23 22 22 25 27 29 31 34 34 38 40 38 44 46 44 50 53 58 56 59
96 97 90 92 97 97 96 88 81 71 66 56 47 45 40 35 28 26 23 23 25 24 25 27 31 34 39 43 40 47 45 48 52 53 55 55 60 62
97 97 97 97 96 95 90 81 76 68 59 49 47 43 35 28 27 25 23 24 24 25 27 29 29 30 32 39 51 48 51 53 54 55 59 58 57 64
97 97 97 96 97 91 84 78 69 59 52 48 43 36 29 28 25 23 24 24 25 27 30 33 35 39 39 40 39 55 51 52 54 57 60 63 63 64
95 96 97 97 92 85 77 68 60 55 49 41 34 29 28 25 25 26 25 25 26 28 32 37 42 45 48 46 40 34 49 52 55 59 60 61 66 68
97 97 97 91 82 76 67 60 53 45 39 32 29 27 25 26 27 26 27 28 29 32 36 41 44 46 46 44 39 34 30 36 58 64 68 67 64 62
97 97 87 78 70 61 57 49 41 36 31 29 26 26 27 27 27 28 28 28 32 37 40 42 39 39 39 38 37 34 31 27 30 65 81 85 84 76
89 79 72 65 60 53 43 37 33 32 29 27 28 29 28 27 29 29 29 30 35 38 41 39 39 37 36 36 36 34 33 31 29 39 73 84 87 90